Weather History for Imperial, CA

Change the Weather History Date:

Monday, February 18, 2013

  Actual Average Record
Temperature  
Mean Temperature 60 °F -  
Max Temperature 75 °F 75 °F 90 °F (1977)
Min Temperature 44 °F 46 °F 32 °F (1956)
Degree Days  
Heating Degree Days 6    
Growing Degree Days 10 (Base 50)    
Moisture  
Dew Point 32 °F    
Average Humidity 39    
Maximum Humidity 68    
Minimum Humidity 15    
Precipitation  
Precipitation 0.00 in - - ()
Sea Level Pressure  
Sea Level Pressure 29.91 in    
Wind  
Wind Speed 4 mph (SSW)    
Max Wind Speed 10 mph    
Max Gust Speed -    
Visibility 10 miles    
Events      
Averages and records for this station are not official NWS values.
T = Trace of Precipitation, MM = Missing Value Source: NWS Daily Summary

Daily Weather History Graph

Daily Weather History Graph

Search for Another Location

Airport:

Trip Planner

Search our weather history database for the weather conditions in past years. The results will help you decide how hot, cold, wet, or windy it might be!

Date:

Astronomy

Feb. 18, 2013 Rise Set
Actual Time 6:22 AM PST 5:30 PM PST
Civil Twilight 5:57 AM PST 5:55 PM PST
Nautical Twilight 5:28 AM PST 6:24 PM PST
Astronomical Twilight 4:59 AM PST 6:53 PM PST
Moon 11:28 AM PST (2/18) 12:57 AM PST (2/18)
Length of Visible Light 11h 58m
Length of Day
11h 08m
First Quarter, 59% of the Moon is Illuminated
Feb 18
First Quarter
Feb 25
Full
Mar 4
Last Quarter
Mar 11
New
Mar 19
First Quarter

Hourly Weather History & Observations

Time (PST) Temp. Windchill Dew Point Humidity Pressure Visibility Wind Dir Wind Speed Gust Speed Precip Events Conditions
12:53 AM 53.1 °F - 24.1 °F 32% 29.91 in 10.0 mi West 3.5 mph - N/A   Clear
1:53 AM 48.9 °F - 27.0 °F 43% 29.92 in 10.0 mi SW 3.5 mph - N/A   Clear
2:53 AM 48.9 °F - 32.0 °F 52% 29.91 in 10.0 mi SSW 5.8 mph - N/A   Clear
3:53 AM 50.0 °F - 37.4 °F 62% 29.91 in 10.0 mi Calm Calm - N/A   Clear
4:53 AM 46.9 °F - 33.1 °F 59% 29.94 in 10.0 mi SE 3.5 mph - N/A   Clear
5:53 AM 46.4 °F 45.2 °F 35.6 °F 66% 29.96 in 10.0 mi SSE 3.5 mph - N/A   Clear
6:53 AM 44.1 °F - 34.0 °F 68% 29.97 in 9.0 mi Calm Calm - N/A   Clear
7:53 AM 52.0 °F - 39.0 °F 61% 30.00 in 10.0 mi SSE 3.5 mph - N/A   Clear
8:53 AM 59.0 °F - 35.1 °F 41% 29.99 in 10.0 mi Calm Calm - N/A   Clear
9:53 AM 64.0 °F - 37.0 °F 37% 29.99 in 10.0 mi Calm Calm - N/A   Clear
10:53 AM 66.9 °F - 37.0 °F 33% 29.99 in 10.0 mi Calm Calm - N/A   Clear
11:53 AM 72.0 °F - 28.9 °F 20% 29.96 in 10.0 mi Calm Calm - N/A   Clear
12:53 PM 73.0 °F - 24.1 °F 16% 29.92 in 10.0 mi Calm Calm - N/A   Clear
1:53 PM 75.0 °F - 25.0 °F 16% 29.90 in 10.0 mi East 6.9 mph - N/A   Clear
2:53 PM 75.9 °F - 25.0 °F 15% 29.88 in 10.0 mi Variable 3.5 mph - N/A   Clear
3:53 PM 75.0 °F - 26.1 °F 16% 29.87 in 10.0 mi SE 5.8 mph - N/A   Clear
4:53 PM 73.4 °F - 28.4 °F 19% 29.85 in 10.0 mi East 4.6 mph - N/A   Clear
5:53 PM 71.1 °F - 26.1 °F 19% 29.84 in 10.0 mi SE 4.6 mph - N/A   Clear
6:53 PM 66.0 °F - 30.0 °F 26% 29.85 in 10.0 mi South 5.8 mph - N/A   Clear
7:53 PM 61.0 °F - 36.0 °F 39% 29.86 in 10.0 mi SW 8.1 mph - N/A   Clear
8:53 PM 59.0 °F - 39.9 °F 49% 29.87 in 10.0 mi West 9.2 mph - N/A   Clear
9:53 PM 59.0 °F - 41.0 °F 51% 29.87 in 10.0 mi WSW 9.2 mph - N/A   Clear
10:53 PM 59.0 °F - 39.9 °F 49% 29.86 in 10.0 mi West 10.4 mph - N/A   Clear
11:53 PM 57.9 °F - 37.0 °F 46% 29.86 in 10.0 mi West 10.4 mph - N/A   Clear